TimePST,TemperatureF,Dew PointF,Humidity,Sea Level PressureIn,VisibilityMPH,Wind Direction,Wind SpeedMPH,Gust SpeedMPH,PrecipitationIn,Events,Conditions,WindDirDegrees,DateUTC
12:53 AM,21.0,17.1,85,30.20,10.0,South,11.5,-,N/A,,Clear,170,2013-02-04 08:53:00
2:53 AM,19.4,15.8,86,30.20,10.0,South,9.2,-,N/A,,Clear,190,2013-02-04 10:53:00
3:53 AM,18.0,14.0,84,30.23,10.0,South,11.5,-,N/A,,Clear,180,2013-02-04 11:53:00
4:53 AM,16.0,12.9,88,30.27,10.0,SSE,10.4,-,N/A,,Clear,160,2013-02-04 12:53:00
5:53 AM,16.0,12.0,84,30.27,10.0,South,12.7,-,N/A,,Clear,170,2013-02-04 13:53:00
6:53 AM,19.0,12.9,77,30.28,10.0,South,15.0,-,N/A,,Clear,180,2013-02-04 14:53:00
7:53 AM,21.0,15.1,78,30.31,10.0,South,12.7,-,N/A,,Clear,180,2013-02-04 15:53:00
8:53 AM,28.0,19.0,69,30.26,10.0,South,11.5,-,N/A,,Clear,170,2013-02-04 16:53:00
9:53 AM,33.1,21.0,61,30.26,10.0,South,8.1,-,N/A,,Clear,170,2013-02-04 17:53:00
10:53 AM,39.0,21.0,49,30.22,10.0,South,5.8,-,N/A,,Clear,180,2013-02-04 18:53:00
11:53 AM,48.0,16.0,28,30.16,10.0,Calm,Calm,-,N/A,,Clear,0,2013-02-04 19:53:00
12:53 PM,48.9,10.9,22,30.14,10.0,Calm,Calm,-,N/A,,Clear,0,2013-02-04 20:53:00
1:53 PM,50.0,9.0,19,30.13,10.0,Calm,Calm,-,N/A,,Clear,0,2013-02-04 21:53:00
2:53 PM,48.9,12.9,24,30.13,10.0,NNW,8.1,-,N/A,,Clear,330,2013-02-04 22:53:00
3:53 PM,50.0,10.9,21,30.12,10.0,Calm,Calm,-,N/A,,Clear,0,2013-02-04 23:53:00
4:53 PM,37.0,18.0,46,30.18,10.0,WSW,3.5,-,N/A,,Clear,240,2013-02-05 00:53:00
5:53 PM,32.0,19.9,61,30.22,10.0,SE,5.8,-,N/A,,Clear,140,2013-02-05 01:53:00
6:53 PM,28.9,19.0,67,30.22,10.0,South,8.1,-,N/A,,Clear,180,2013-02-05 02:53:00
7:53 PM,28.0,19.0,69,30.22,10.0,South,11.5,-,N/A,,Clear,170,2013-02-05 03:53:00
8:53 PM,27.0,19.0,72,30.20,10.0,South,12.7,-,N/A,,Clear,170,2013-02-05 04:53:00
9:53 PM,24.1,18.0,77,30.19,10.0,South,10.4,-,N/A,,Clear,170,2013-02-05 05:53:00
10:53 PM,24.1,18.0,77,30.16,10.0,South,12.7,-,N/A,,Clear,170,2013-02-05 06:53:00
11:53 PM,24.1,17.1,75,30.12,10.0,SSE,10.4,-,N/A,,Clear,160,2013-02-05 07:53:00